This is the latest recevied weather packets stored in our database for station/object NN3A-3. If no packets are shown the sender has not sent any weather packets the latest 10 day(s).
| Time | Temp. | Humidity | Pressure | Rain* | Wind** | Luminosity | Snow |
|---|---|---|---|---|---|---|---|
| 1778180501 | 16.11° C | 61% | 1007.6 hPa | 0 mm | - | - | - |
| 1778180202 | 17.22° C | 59% | 1007.6 hPa | 0 mm | - | - | - |
| 1778179901 | 17.78° C | 61% | 1007.9 hPa | 0 mm | - | - | - |
| 1778179601 | 16.67° C | 61% | 1007.6 hPa | 0 mm | - | - | - |
| 1778179302 | 17.22° C | 60% | 1007.9 hPa | 0 mm | - | - | - |
| 1778178402 | 17.22° C | 61% | 1007.6 hPa | 0 mm | - | - | - |
| 1778178101 | 17.78° C | 60% | 1007.6 hPa | 0 mm | - | - | - |
| 1778177802 | 18.33° C | 60% | 1007.6 hPa | 0 mm | - | - | - |
| 1778177501 | 18.33° C | 61% | 1007.6 hPa | 0 mm | - | - | - |
| 1778177203 | 18.33° C | 61% | 1007.6 hPa | 0 mm | - | - | - |
| 1778176603 | 17.22° C | 62% | 1007.9 hPa | 0 mm | - | - | - |
| 1778176003 | 17.22° C | 60% | 1008.3 hPa | 0 mm | - | - | - |
| 1778174803 | 17.78° C | 61% | 1008.6 hPa | 0 mm | - | - | - |
| 1778174504 | 17.78° C | 59% | 1008.6 hPa | 0 mm | - | - | - |
| 1778174204 | 18.33° C | 63% | 1008.6 hPa | 0 mm | - | - | - |
| 1778173904 | 17.78° C | 64% | 1008.6 hPa | 0 mm | - | - | - |
| 1778173304 | 16.11° C | 63% | 1008.6 hPa | 0 mm | - | - | - |
| 1778172704 | 17.22° C | 63% | 1008.6 hPa | 0 mm | - | - | - |
| 1778172405 | 17.22° C | 62% | 1008.6 hPa | 0 mm | - | - | - |
| 1778172105 | 16.67° C | 61% | 1008.6 hPa | 0 mm | - | - | - |
| 1778171504 | 16.67° C | 61% | 1008.9 hPa | 0 mm | - | - | - |
| 1778170606 | 17.78° C | 60% | 1008.9 hPa | 0 mm | - | - | - |
| 1778170306 | 18.33° C | 61% | 1008.9 hPa | 0 mm | - | - | - |
| 1778169406 | 17.22° C | 62% | 1008.9 hPa | 0 mm | - | - | - |
| 1778169106 | 17.78° C | 61% | 1008.9 hPa | 0 mm | - | - | - |
* Rain latest hour (hover to see other rain measurements)
** Current wind speed in m/s (hover to see current wind gust speed)